Weather in Nisporeni

Moldova     47˚04′46″N   28˚11′13″E
temp.,
°C
wind,
m/s
gust,
m/s
humid.,
%
clouds,
%
prec.,
mm/h
press.,
hPa
HPBL,
m
29 november, sun
sun2923:00+2˚nw1291100 0.0 102024
02:00+1˚nnw1194100 0.0 102022
05:00+1˚n2297100 0.3 1020118
08:00+1˚ene1197100 0.8 102059
11:00+2˚e1195100 0.2 1021137
14:00+2˚ese1191100 0.3 1021199
17:00+2˚ene018785 0.0 102144
20:00+2˚se128486 0.1 102273
30 november, mon
mon3023:00+1˚ene008463 0.0 102222
02:00+1˚n228874 0.0 102389
05:00+1˚ne1490100 0.0 1022264
08:00+1˚nne2396100 0.5 1024210
11:00+1˚n3591100 0.3 1025339
14:00+3˚n5773100 0.4 1025786
17:00n5995100 0.4 1026520
20:00+1˚n5969100 0.4 1026590
1 december, tue
tue123:00nnw5972100 0.0 1027444
02:00−1˚nnw4980100 0.0 1027319
05:00−2˚nnw5108456 0.0 1027306
08:00−2˚nnw598448 0.0 1027339
11:00n577692 0.0 1026517
14:00+1˚n578694 0.2 1025507
17:00n369695 0.3 1025361
20:00nnw349897 0.5 1026126
2 december, wed
wed223:00+1˚nnw2398100 0.4 1026105
02:00+1˚nnw2298100 0.8 1025110
05:00+1˚nnw1298100 0.1 102586
08:00+1˚nnw1297100 0.3 1025160
11:00+2˚nnw1295100 0.1 1025164
14:00+2˚nw1293100 0.2 1024196
17:00+2˚w1193100 0.1 1024153
20:00+1˚w1292100 0.2 1025168
3 december, thu
thu323:00w119092 0.1 1025110
02:00−1˚nnw119074 0.1 102525
05:00e118750 0.0 102437
08:00ese118570 0.0 102452
11:00+2˚se357894 0.0 1024425
14:00+3˚se467996 0.0 1022450
17:00+2˚ese4986100 0.0 1022331
20:00+3˚se4109299 0.0 1021318